Weather History for KEHR - January, 2014

Change the Weather History Date:

Monday, January 6, 2014

  Actual Average Record
Temperature  
Mean Temperature 4 °F -  
Max Temperature 8 °F 40 °F 67 °F (1946)
Min Temperature 0 °F 26 °F -10 °F (1940)
Degree Days  
Heating Degree Days 61    
Moisture  
Dew Point -9 °F    
Average Humidity 63    
Maximum Humidity 72    
Minimum Humidity 47    
Precipitation  
Precipitation 0.01 in - - ()
Sea Level Pressure  
Sea Level Pressure 30.44 in    
Wind  
Wind Speed 18 mph (WNW)    
Max Wind Speed 24 mph    
Max Gust Speed 37 mph    
Visibility 10 miles    
Events      
Averages and records for this station are not official NWS values.
T = Trace of Precipitation, MM = Missing Value Source: NWS Daily Summary

Daily Weather History Graph

Daily Weather History Graph

Search for Another Location

Airport or City:

Trip Planner

Search our weather history database for the weather conditions in past years. The results will help you decide how hot, cold, wet, or windy it might be!

Date:

Astronomy

Jan. 06, 2014 Rise Set
Actual Time 7:06 AM CST 4:46 PM CST
Civil Twilight 6:37 AM CST 5:16 PM CST
Nautical Twilight 6:04 AM CST 5:48 PM CST
Astronomical Twilight 5:33 AM CST 6:20 PM CST
Moon 10:28 AM CST (1/6) 11:12 PM CST (1/6)
Length of Visible Light 10h 38m
Length of Day
9h 40m
Waxing Crescent, 35% of the Moon is Illuminated
Jan 6
Waxing Crescent
Jan 7
First Quarter
Jan 15
Full
Jan 23
Last Quarter
Jan 30
New

Hourly Weather History & Observations

Time (CST) Temp. Windchill Dew Point Humidity Pressure Visibility Wind Dir Wind Speed Gust Speed Precip Events Conditions
12:15 AM 8.6 °F -11.9 °F -0.4 °F 67% 30.21 in 10.0 mi NW 23.0 mph 34.5 mph N/A   Mostly Cloudy
12:35 AM 6.8 °F -13.8 °F -2.2 °F 67% 30.22 in 10.0 mi WNW 21.9 mph 33.4 mph N/A   Overcast
12:55 AM 6.8 °F -14.7 °F -2.2 °F 67% 30.24 in 10.0 mi WNW 24.2 mph 34.5 mph N/A   Overcast
1:15 AM 6.8 °F -14.3 °F -4.0 °F 61% 30.25 in 10.0 mi NW 23.0 mph 31.1 mph N/A   Mostly Cloudy
1:35 AM 5.0 °F -16.7 °F -4.0 °F 66% 30.27 in 10.0 mi NW 23.0 mph 35.7 mph N/A   Partly Cloudy
1:55 AM 5.0 °F -17.1 °F -5.8 °F 61% 30.29 in 10.0 mi NW 24.2 mph 36.8 mph N/A   Partly Cloudy
2:15 AM 3.2 °F -17.6 °F -7.6 °F 61% 30.30 in 10.0 mi WNW 19.6 mph 27.6 mph N/A   Clear
2:35 AM 3.2 °F -17.1 °F -7.6 °F 61% 30.32 in 10.0 mi NW 18.4 mph 28.8 mph N/A   Clear
2:55 AM 3.2 °F -17.1 °F -5.8 °F 66% 30.32 in 10.0 mi WNW 18.4 mph 25.3 mph N/A   Mostly Cloudy
3:15 AM 3.2 °F -18.6 °F -7.6 °F 61% 30.33 in 10.0 mi WNW 21.9 mph 32.2 mph N/A   Overcast
3:35 AM 3.2 °F -16.5 °F -9.4 °F 56% 30.33 in 10.0 mi NW 17.3 mph 29.9 mph N/A   Overcast
3:55 AM 3.2 °F -15.3 °F -7.6 °F 61% 30.33 in 10.0 mi NW 15.0 mph 21.9 mph N/A   Overcast
4:15 AM 3.2 °F -16.5 °F -7.6 °F 61% 30.34 in 10.0 mi NW 17.3 mph 25.3 mph N/A   Mostly Cloudy
4:35 AM 1.4 °F -21.9 °F -11.2 °F 56% 30.35 in 10.0 mi NW 24.2 mph 31.1 mph N/A   Scattered Clouds
4:55 AM 1.4 °F -18.8 °F -14.8 °F 47% 30.37 in 10.0 mi NW 17.3 mph 26.5 mph N/A   Clear
5:15 AM 1.4 °F -19.9 °F -11.2 °F 56% 30.38 in 10.0 mi NW 19.6 mph 29.9 mph N/A   Clear
5:35 AM -0.4 °F -21.2 °F -11.2 °F 60% 30.39 in 10.0 mi NW 17.3 mph 28.8 mph N/A   Clear
5:55 AM -0.4 °F -21.2 °F -14.8 °F 51% 30.39 in 10.0 mi NW 17.3 mph 24.2 mph N/A   Clear
6:15 AM -0.4 °F -19.2 °F -9.4 °F 66% 30.40 in 10.0 mi NW 13.8 mph 19.6 mph N/A   Partly Cloudy
6:35 AM -0.4 °F -19.2 °F -11.2 °F 60% 30.41 in 10.0 mi NW 13.8 mph 23.0 mph N/A   Partly Cloudy
6:55 AM -0.4 °F -19.2 °F -14.8 °F 51% 30.42 in 10.0 mi NW 13.8 mph 19.6 mph N/A   Clear
7:15 AM -0.4 °F -21.2 °F -11.2 °F 60% 30.42 in 10.0 mi NW 17.3 mph 23.0 mph N/A   Mostly Cloudy
7:35 AM -0.4 °F -20.5 °F -7.6 °F 72% 30.43 in 10.0 mi WNW 16.1 mph 26.5 mph N/A   Overcast
7:55 AM -0.4 °F -18.4 °F -13.0 °F 55% 30.44 in 10.0 mi WNW 12.7 mph - N/A   Scattered Clouds
8:15 AM -0.4 °F -18.4 °F -11.2 °F 60% 30.45 in 10.0 mi WNW 12.7 mph 23.0 mph N/A   Mostly Cloudy
8:35 AM -0.4 °F -20.5 °F -11.2 °F 60% 30.46 in 10.0 mi NW 16.1 mph - N/A   Overcast
8:55 AM -0.4 °F -21.7 °F -11.2 °F 60% 30.47 in 10.0 mi WNW 18.4 mph 26.5 mph N/A   Overcast
9:15 AM 1.4 °F -18.8 °F -5.8 °F 72% 30.47 in 10.0 mi West 17.3 mph - N/A   Overcast
9:35 AM -0.4 °F -21.2 °F -11.2 °F 60% 30.47 in 10.0 mi WNW 17.3 mph 25.3 mph N/A   Overcast
9:55 AM 1.4 °F -17.6 °F -9.4 °F 61% 30.47 in 10.0 mi WNW 15.0 mph - N/A   Overcast
10:15 AM -0.4 °F -19.9 °F -9.4 °F 66% 30.47 in 10.0 mi WNW 15.0 mph 24.2 mph N/A   Overcast
10:35 AM 1.4 °F -17.6 °F -7.6 °F 66% 30.47 in 10.0 mi WNW 15.0 mph - N/A   Overcast
10:55 AM 1.4 °F -19.4 °F -9.4 °F 61% 30.46 in 10.0 mi WNW 18.4 mph 24.2 mph N/A   Overcast
11:15 AM 1.4 °F -18.8 °F -9.4 °F 61% 30.46 in 10.0 mi WNW 17.3 mph 24.2 mph N/A   Overcast
11:35 AM 1.4 °F -17.6 °F -5.8 °F 72% 30.45 in 10.0 mi WNW 15.0 mph 20.7 mph N/A   Overcast
11:55 AM 1.4 °F -19.4 °F -9.4 °F 61% 30.44 in 10.0 mi West 18.4 mph 23.0 mph N/A   Overcast
12:15 PM 1.4 °F -16.9 °F -7.6 °F 66% 30.44 in 4.0 mi West 13.8 mph - N/A   Mostly Cloudy
12:35 PM 3.2 °F -17.1 °F -7.6 °F 61% 30.43 in 10.0 mi WNW 18.4 mph 25.3 mph N/A   Overcast
12:55 PM 1.4 °F -19.9 °F -9.4 °F 61% 30.43 in 10.0 mi West 19.6 mph 28.8 mph N/A   Overcast
1:15 PM 1.4 °F -19.9 °F -9.4 °F 61% 30.44 in 10.0 mi West 19.6 mph 23.0 mph N/A   Overcast
1:35 PM 1.4 °F -20.5 °F -9.4 °F 61% 30.44 in 10.0 mi West 20.7 mph 25.3 mph N/A   Overcast
1:55 PM 1.4 °F -19.9 °F -9.4 °F 61% 30.45 in 10.0 mi West 19.6 mph 23.0 mph N/A   Overcast
2:15 PM 1.4 °F -18.2 °F -7.6 °F 66% 30.45 in 4.0 mi WNW 16.1 mph 20.7 mph N/A   Overcast
2:35 PM 1.4 °F -20.5 °F -7.6 °F 66% 30.45 in 4.0 mi West 20.7 mph - N/A   Overcast
2:55 PM 1.4 °F -19.9 °F -7.6 °F 66% 30.46 in 9.0 mi WNW 19.6 mph 24.2 mph N/A   Mostly Cloudy
3:15 PM 1.4 °F -16.9 °F -7.6 °F 66% 30.47 in 7.0 mi WNW 13.8 mph - N/A   Overcast
3:35 PM -0.4 °F -21.7 °F -11.2 °F 60% 30.48 in 10.0 mi WNW 18.4 mph - N/A   Scattered Clouds
3:55 PM -0.4 °F -18.4 °F -9.4 °F 66% 30.49 in 10.0 mi West 12.7 mph - N/A   Mostly Cloudy
4:15 PM -0.4 °F -20.5 °F -9.4 °F 66% 30.49 in 7.0 mi West 16.1 mph 24.2 mph N/A   Overcast
4:35 PM -0.4 °F -20.5 °F -9.4 °F 66% 30.49 in 10.0 mi WNW 16.1 mph 23.0 mph N/A   Mostly Cloudy
4:55 PM -0.4 °F -19.2 °F -11.2 °F 60% 30.50 in 10.0 mi WNW 13.8 mph 17.3 mph N/A   Scattered Clouds
5:15 PM -0.4 °F -16.7 °F -9.4 °F 66% 30.50 in 10.0 mi WNW 10.4 mph - N/A   Clear
5:35 PM -0.4 °F -16.7 °F -9.4 °F 66% 30.50 in 10.0 mi WNW 10.4 mph - N/A   Clear
5:55 PM -0.4 °F -17.6 °F -9.4 °F 66% 30.50 in 10.0 mi West 11.5 mph - N/A   Clear
6:15 PM -0.4 °F -15.7 °F -9.4 °F 66% 30.50 in 10.0 mi WNW 9.2 mph - N/A   Clear
6:35 PM -0.4 °F -15.7 °F -9.4 °F 66% 30.50 in 10.0 mi West 9.2 mph - N/A   Clear
6:55 PM -0.4 °F -16.7 °F -9.4 °F 66% 30.51 in 10.0 mi West 10.4 mph - N/A   Clear
7:15 PM -0.4 °F -16.7 °F -9.4 °F 66% 30.51 in 10.0 mi West 10.4 mph - N/A   Clear
7:35 PM -0.4 °F -17.6 °F -7.6 °F 72% 30.52 in 10.0 mi WNW 11.5 mph - N/A   Clear
7:55 PM -0.4 °F -16.7 °F -9.4 °F 66% 30.51 in 10.0 mi West 10.4 mph - N/A   Clear
8:15 PM -0.4 °F -14.7 °F -7.6 °F 72% 30.52 in 10.0 mi West 8.1 mph - N/A   Clear
8:35 PM -0.4 °F -15.7 °F -9.4 °F 66% 30.53 in 10.0 mi West 9.2 mph - N/A   Clear
8:55 PM 1.4 °F -14.5 °F -7.6 °F 66% 30.53 in 10.0 mi West 10.4 mph - N/A   Clear
9:15 PM 1.4 °F -14.5 °F -7.6 °F 66% 30.54 in 10.0 mi West 10.4 mph - N/A   Clear
9:35 PM 1.4 °F -16.1 °F -7.6 °F 66% 30.54 in 10.0 mi West 12.7 mph - N/A   Clear
9:55 PM 1.4 °F -15.3 °F -9.4 °F 61% 30.54 in 10.0 mi West 11.5 mph - N/A   Clear
10:15 PM 1.4 °F -12.5 °F -7.6 °F 66% 30.55 in 10.0 mi West 8.1 mph - N/A   Clear
10:35 PM 1.4 °F -14.5 °F -9.4 °F 61% 30.55 in 10.0 mi West 10.4 mph - N/A   Clear
10:55 PM 1.4 °F -14.5 °F -9.4 °F 61% 30.54 in 10.0 mi WNW 10.4 mph - N/A   Clear
11:15 PM 1.4 °F -16.1 °F -9.4 °F 61% 30.53 in 10.0 mi WNW 12.7 mph - N/A   Clear
11:35 PM 1.4 °F -12.5 °F -7.6 °F 66% 30.53 in 10.0 mi West 8.1 mph - N/A   Clear
11:55 PM -0.4 °F -16.7 °F -11.2 °F 60% 30.53 in 10.0 mi West 10.4 mph - N/A   Clear